This is the latest recevied weather packets stored in our database for station/object S56IAR-13. If no packets are shown the sender has not sent any weather packets the latest 10 day(s).
| Time | Temp. | Humidity | Pressure | Rain* | Wind** | Luminosity | Snow |
|---|---|---|---|---|---|---|---|
| 1777980904 | 15° C | 73% | 961.5 hPa | 0 mm | - | 132 W/m² | - |
| 1777979410 | 14.44° C | 74% | 961.6 hPa | 0 mm | - | 105 W/m² | - |
| 1777977005 | 15.56° C | 67% | 961.8 hPa | 0 mm | - | 191 W/m² | - |
| 1777975504 | 15.56° C | 66% | 961.6 hPa | 0 mm | - | 207 W/m² | - |
| 1777974306 | 16.11° C | 64% | 961.4 hPa | 0 mm | - | 163 W/m² | - |
| 1777974004 | 16.11° C | 64% | 961.3 hPa | 0 mm | - | 215 W/m² | - |
| 1777972633 | 16.67° C | 63% | 961.3 hPa | 0 mm | - | 131 W/m² | - |
| 1777972204 | 16.67° C | 61% | 961.1 hPa | 0 mm | - | 122 W/m² | - |
| 1777970103 | 17.22° C | 63% | 960.9 hPa | 0 mm | - | 414 W/m² | - |
| 1777969804 | 17.78° C | 63% | 960.9 hPa | 0 mm | - | 301 W/m² | - |
| 1777969505 | 17.78° C | 62% | 960.8 hPa | 0 mm | - | 403 W/m² | - |
| 1777966504 | 16.67° C | 69% | 960.8 hPa | 0 mm | - | 432 W/m² | - |
| 1777965733 | 15.56° C | 70% | 960.9 hPa | 0 mm | - | 246 W/m² | - |
| 1777963505 | 14.44° C | 72% | 961.1 hPa | 0 mm | - | 163 W/m² | - |
| 1777960204 | 13.33° C | 73% | 961.1 hPa | 0 mm | - | 69 W/m² | - |
| 1777959303 | 13.33° C | 72% | 961 hPa | 0 mm | - | 110 W/m² | - |
| 1777959134 | 13.33° C | 71% | 961.1 hPa | 0 mm | - | 100 W/m² | - |
| 1777958405 | 11.67° C | 76% | 960.9 hPa | 0 mm | - | 68 W/m² | - |
| 1777957805 | 9.44° C | 92% | 960.9 hPa | 0 mm | - | 55 W/m² | - |
| 1777954336 | 6.67° C | 95% | 961.2 hPa | 0 mm | - | 15 W/m² | - |
| 1777952534 | 6.67° C | 95% | 961.2 hPa | 0 mm | - | 1 W/m² | - |
| 1777951934 | 6.67° C | 94% | 961.2 hPa | 0 mm | - | 0 W/m² | - |
| 1777950604 | 7.22° C | 93% | 961.3 hPa | 0 mm | - | 0 W/m² | - |
| 1777948634 | 7.22° C | 93% | 961.4 hPa | 0 mm | - | 0 W/m² | - |
| 1777947005 | 7.78° C | 91% | 961.9 hPa | 0 mm | - | 0 W/m² | - |
* Rain latest hour (hover to see other rain measurements)
** Current wind speed in m/s (hover to see current wind gust speed)